Theta_e
355 350 349 345 343 340 341 342 342 344 342 342 347 345 344 345 347 347 347 352 349 348 349 350 351 354 357 357 356 356 355 353 352 351 349 349 349 349 348 348 348 348 348
357 348 349 344 343 342 341 343 344 341 341 344 348 350 350 349 350 351 349 351 351 349 350 350 350 352 355 358 358 356 354 353 352 351 350 348 348 348 348 348 347 348 348
361 354 347 345 344 347 357 351 349 344 341 344 348 349 350 353 352 352 352 351 350 350 350 350 351 351 352 355 359 358 355 352 352 350 350 349 348 347 347 348 348 348 347
359 357 346 347 347 347 344 344 343 338 338 341 347 345 349 353 351 352 351 351 349 350 348 350 351 351 351 351 355 359 357 353 350 349 349 349 349 348 348 348 348 348 347
353 353 349 349 355 346 343 343 342 343 341 344 343 345 349 347 350 346 348 351 353 352 351 349 351 349 350 350 352 357 358 355 351 350 349 349 349 349 348 348 348 348 347
353 352 349 346 351 345 344 344 347 344 341 340 338 340 348 347 348 348 348 348 349 351 357 359 354 350 349 350 351 354 357 356 354 351 349 348 348 348 348 348 348 347 347
357 354 351 351 352 347 346 351 346 348 341 347 338 341 342 353 353 349 348 345 348 349 356 359 353 349 347 349 349 351 354 356 356 354 349 346 347 348 348 347 347 347 346
359 357 356 350 353 348 352 353 350 342 340 345 337 338 332 342 344 345 345 345 348 348 347 351 354 355 353 350 352 348 351 354 354 354 351 346 346 347 347 346 346 346 345
357 358 357 356 356 353 348 355 356 350 341 343 347 339 334 328 336 344 348 347 351 347 352 350 353 350 353 353 349 349 348 349 353 354 351 348 348 348 348 346 345 345 345
356 357 358 358 358 356 353 356 355 353 350 342 348 350 346 342 334 330 346 345 351 350 353 346 347 351 353 350 351 349 343 344 349 351 351 351 351 350 349 347 345 344 344
357 355 357 359 358 355 356 356 355 353 349 343 345 344 340 335 337 331 325 332 338 339 341 342 345 345 350 350 347 347 340 339 340 342 345 347 350 350 350 348 346 345 345
356 356 355 357 358 355 355 354 355 355 350 349 346 342 336 330 330 330 329 329 329 332 332 331 338 340 345 349 347 340 337 334 332 333 335 340 344 347 348 348 347 346 346
351 353 356 356 353 357 357 357 355 353 350 344 343 338 337 335 334 332 327 326 325 328 331 335 340 343 336 349 348 340 340 334 330 329 330 332 336 339 343 345 345 346 346
351 358 356 358 356 355 353 352 348 348 347 341 343 341 337 335 336 333 331 327 326 329 330 334 338 337 344 345 344 339 346 333 331 328 326 328 331 334 336 339 341 340 339
342 353 355 357 355 353 354 354 348 348 348 348 346 346 340 336 335 335 335 335 335 326 329 334 335 350 343 343 342 345 344 340 332 329 327 327 328 331 333 335 335 334 333
349 350 354 355 354 355 354 355 349 348 346 343 343 346 344 340 339 339 339 344 341 336 328 337 337 345 346 343 343 346 347 335 332 329 328 327 327 330 331 329 329 329 329
347 346 346 347 348 350 353 351 351 348 347 346 348 345 343 344 340 342 344 344 338 336 331 332 336 343 346 344 341 347 348 348 344 327 327 326 325 326 326 324 324 325 325
340 336 338 337 338 339 345 343 343 343 342 342 344 344 342 343 344 345 345 341 336 340 335 333 336 337 340 343 344 345 343 345 345 329 323 321 319 319 317 316 317 319 319
334 332 331 331 332 333 335 338 338 339 339 340 340 339 337 338 338 337 340 336 336 337 337 333 332 336 337 339 339 341 346 346 348 327 321 320 318 319 318 316 316 317 318
330 329 330 329 328 329 332 333 334 336 335 334 333 331 329 328 331 336 335 339 335 332 332 332 332 333 336 343 342 338 337 340 339 338 329 325 322 317 316 317 317 318 316
328 327 328 329 329 330 327 330 331 332 333 329 328 324 327 324 320 321 324 333 336 328 322 323 325 329 330 337 335 337 334 339 340 345 341 337 334 330 325 318 325 321 318
327 328 325 326 329 324 310 313 328 331 327 325 323 322 323 321 320 314 313 313 319 328 328 319 321 324 335 334 338 338 336 336 326 342 344 338 342 339 336 335 319 315 315
336 333 329 328 328 330 305 307 315 329 329 327 325 325 324 321 322 325 314 311 312 310 313 329 332 333 334 338 341 339 341 339 330 345 341 338 342 338 336 326 316 316 311
332 332 333 331 328 326 303 304 309 331 329 327 326 325 327 326 326 327 329 327 327 333 333 327 332 338 341 342 344 343 342 340 336 338 336 330 341 338 335 331 311 312 307
328 331 329 333 332 328 300 300 309 325 324 324 323 324 324 324 311 306 327 324 325 329 321 311 310 307 307 305 313 332 338 325 325 330 337 337 337 336 338 333 324 313 311
318 322 325 330 325 332 298 299 310 316 324 320 326 325 309 316 306 300 326 326 324 324 325 329 330 326 316 324 310 333 335 327 326 329 338 333 334 334 328 336 329 326 324
Wind_Speed
9 9 8 8 10 10 10 8 7 6 7 9 9 9 8 8 7 4 4 13 11 10 10 10 11 11 10 10 11 12 12 12 12 12 13 13 13 13 12 12 12 12 12
9 10 9 10 9 10 9 9 7 6 7 9 8 8 8 8 7 6 6 5 13 13 11 12 11 11 11 11 12 12 12 12 13 13 13 13 14 14 14 14 14 13 13
11 12 9 10 10 8 6 5 6 6 7 7 8 7 7 9 8 8 6 6 5 12 13 13 11 12 11 12 14 14 14 15 15 14 14 14 15 15 15 15 15 14 13
11 11 10 10 9 8 8 8 9 9 9 9 7 7 6 7 7 7 8 7 6 5 11 12 12 10 8 12 15 16 17 17 15 13 13 14 15 15 15 15 16 15 15
16 10 11 9 9 9 8 9 7 8 8 8 7 8 7 7 7 8 7 7 7 6 6 12 12 11 9 10 13 16 18 16 14 14 14 15 16 16 14 16 16 16 15
16 12 11 8 12 11 10 10 9 9 8 8 9 8 6 6 6 7 7 8 7 6 4 6 7 9 10 11 13 16 18 17 14 14 14 14 15 15 15 16 17 16 16
17 16 13 12 12 11 12 12 10 8 8 7 8 7 8 7 6 8 6 6 6 6 7 3 4 6 5 12 12 17 17 16 15 15 15 14 16 16 16 16 16 16 15
15 14 14 13 14 11 12 11 13 10 10 8 8 7 8 4 5 5 5 3 6 3 4 4 5 6 7 8 5 14 17 17 17 18 16 16 17 17 16 16 16 16 15
15 15 17 14 12 12 11 12 11 12 9 9 12 7 4 7 4 5 6 3 2 2 3 5 5 7 9 7 10 11 14 15 17 17 18 15 18 17 16 15 15 16 15
14 15 14 14 11 10 12 8 9 10 9 8 8 3 2 4 3 4 1 2 3 6 5 6 7 8 9 8 12 13 13 11 14 15 16 16 15 16 15 14 16 15 14
17 16 16 14 14 11 10 10 10 11 9 9 8 9 8 5 4 4 4 5 5 7 7 9 8 8 8 7 11 13 11 8 10 10 13 13 16 15 15 15 15 14 14
14 17 17 14 13 12 12 12 12 13 9 6 8 9 9 8 9 7 7 9 10 10 10 11 13 11 7 8 12 9 6 9 10 11 11 12 15 14 12 13 14 14 14
12 14 17 15 13 13 12 12 12 11 12 12 13 11 8 8 5 6 9 10 11 10 9 11 6 16 8 4 8 10 11 12 13 11 9 10 14 12 9 9 11 10 12
14 17 16 14 14 15 14 11 9 9 12 9 12 11 10 10 7 9 9 9 9 10 4 15 14 8 2 6 5 7 9 16 15 10 6 8 13 8 8 9 8 6 5
13 22 20 16 16 14 14 14 12 14 12 12 12 12 12 11 10 11 7 8 6 9 8 12 11 4 3 6 5 8 7 12 6 6 4 8 9 8 9 8 6 5 4
11 15 23 19 16 16 15 15 13 14 13 11 12 13 12 11 9 9 7 4 6 8 8 6 10 6 5 7 7 8 8 11 9 4 7 7 7 9 8 6 4 5 6
8 12 6 12 15 14 13 13 13 12 15 13 13 11 12 11 9 7 6 6 8 10 10 9 10 4 7 9 7 6 7 8 6 7 8 8 9 7 5 3 3 3 3
12 12 14 15 14 14 12 13 14 14 14 11 13 12 11 7 9 8 7 10 10 10 7 8 10 7 6 8 6 6 7 9 6 7 7 8 7 6 6 5 4 5 5
12 13 14 14 14 14 14 13 12 14 11 11 10 11 10 9 8 6 8 8 8 8 9 10 9 8 6 7 4 7 4 8 2 12 8 9 9 8 7 6 6 6 6
13 12 12 12 14 14 13 12 12 11 9 9 7 5 6 6 7 7 8 7 8 8 9 9 10 9 7 6 7 7 9 7 7 8 6 3 10 9 8 7 7 7 6
10 13 13 13 13 12 11 13 12 11 9 8 6 6 8 7 5 5 7 8 6 7 9 9 10 9 7 5 9 8 8 7 8 7 7 6 6 6 7 9 8 10 8
12 11 12 13 12 12 13 13 12 10 10 9 7 6 4 5 9 11 10 10 9 8 10 11 11 11 7 9 8 8 7 7 5 5 6 6 5 6 7 6 9 13 9
11 13 13 14 13 12 15 15 11 9 9 7 7 5 5 5 4 8 11 13 13 16 18 13 12 11 12 11 10 10 9 8 7 2 5 5 5 4 6 8 11 11 7
12 12 11 12 11 11 13 18 15 10 9 9 7 6 7 7 8 8 10 9 10 9 9 9 12 13 12 12 10 9 10 8 6 4 2 3 5 4 5 6 9 9 6
9 10 13 12 14 13 18 15 15 11 10 9 8 9 8 8 7 4 9 11 11 9 10 8 4 4 8 9 8 7 6 4 3 4 6 4 4 4 5 6 7 8 8
12 8 12 15 14 13 16 19 15 12 10 10 9 9 11 12 10 8 8 10 9 10 10 12 11 10 8 10 8 8 3 3 7 3 5 4 5 4 4 4 7 7 6
Wind_Direction
195 198 205 215 184 207 184 228 229 201 228 246 255 244 246 249 258 269 284 162 184 213 240 254 266 272 263 239 230 224 224 223 225 229 233 241 243 245 243 244 246 244 239
194 196 211 211 205 207 205 196 208 223 225 251 230 245 252 256 252 262 265 198 184 199 212 230 238 255 264 251 229 227 225 228 230 230 230 232 237 242 241 243 242 243 241
197 208 199 210 210 210 221 195 206 195 248 254 253 266 251 233 247 250 256 260 210 201 201 218 215 229 246 253 236 222 223 220 224 225 229 230 232 234 235 239 243 240 238
220 194 207 202 223 203 199 208 205 209 219 228 234 254 233 240 244 253 249 254 254 304 202 213 221 220 239 260 259 246 225 223 220 227 225 231 234 233 234 237 239 239 237
199 215 214 202 209 221 201 212 216 217 209 237 235 226 240 257 256 242 260 257 245 250 260 183 211 214 216 238 258 258 255 243 229 213 223 230 232 235 231 237 238 236 236
195 205 219 209 189 211 208 212 217 218 217 230 237 239 225 262 275 267 252 247 247 233 233 217 204 214 207 213 234 244 243 247 233 236 234 229 230 234 232 232 236 234 235
196 201 211 205 199 204 222 194 201 225 214 221 240 246 248 218 248 274 245 259 244 207 212 191 263 283 210 219 228 242 243 240 246 234 228 230 231 224 231 232 232 231 233
197 198 212 210 199 206 216 225 196 198 213 224 214 232 238 177 216 244 245 235 254 260 278 300 311 328 323 303 294 218 238 238 232 235 227 227 230 227 222 230 230 231 232
200 203 207 220 200 201 209 205 204 211 206 201 211 237 215 232 135 209 195 222 137 229 2 282 255 286 280 276 284 278 231 235 238 235 234 233 232 225 224 221 227 230 230
209 211 218 210 217 200 206 201 203 208 234 221 173 194 21 103 180 207 188 310 280 256 243 254 262 256 252 265 274 268 269 231 238 245 247 246 243 233 226 218 223 227 231
200 213 207 214 205 219 201 210 192 196 201 231 177 178 174 159 163 200 237 234 246 281 306 307 264 265 258 276 285 277 249 244 243 251 258 249 244 235 227 220 222 226 230
191 200 206 204 202 203 210 203 191 196 214 180 201 191 186 182 194 197 228 250 264 262 264 282 279 277 253 246 259 293 294 278 258 254 253 246 243 232 227 223 228 231 235
190 192 196 192 198 198 194 195 188 184 190 189 194 192 205 214 237 241 247 255 262 271 275 272 215 246 277 289 347 360 322 301 281 257 237 243 244 228 215 230 242 233 237
181 172 189 189 195 193 194 186 194 201 202 211 209 223 216 229 235 255 259 270 268 277 318 292 273 263 293 319 332 284 296 280 269 255 227 224 238 226 224 225 225 219 230
210 147 178 182 194 194 188 189 208 203 221 213 219 225 233 241 238 243 242 244 236 271 257 257 272 306 319 302 293 295 282 287 278 247 240 238 233 219 203 204 200 215 225
196 159 172 170 191 198 201 198 205 212 200 210 219 222 229 235 230 236 245 239 244 251 269 273 285 315 306 280 272 277 283 262 228 225 235 228 227 190 175 171 192 217 241
132 187 176 170 192 201 204 201 224 220 215 217 229 234 226 230 240 247 234 236 243 235 242 260 266 275 288 270 272 262 285 294 258 190 205 191 193 161 167 163 202 221 238
182 190 183 189 195 199 204 210 216 230 220 214 222 226 238 230 232 228 232 233 232 262 299 277 271 280 261 273 259 288 287 281 268 174 176 174 170 163 169 184 185 195 204
189 201 191 192 196 198 198 204 211 219 219 208 201 199 203 198 200 246 246 275 246 237 232 241 256 263 252 260 245 236 252 270 308 145 180 199 178 175 175 179 181 187 185
192 198 192 196 197 194 195 193 204 192 176 184 175 191 210 223 229 236 248 256 265 274 278 272 255 252 261 257 272 277 276 241 243 187 151 242 175 174 176 178 182 185 180
196 196 194 199 199 187 184 190 187 180 178 167 156 206 216 245 307 303 285 275 296 287 275 284 280 260 255 253 262 271 269 265 224 227 211 179 199 190 184 195 178 182 174
217 207 193 199 197 202 167 172 173 163 174 180 189 204 254 243 243 234 240 244 263 275 270 276 284 289 293 281 283 274 264 265 242 204 214 228 209 200 162 212 144 153 170
215 214 200 191 190 208 144 133 144 166 180 183 192 215 251 276 273 255 224 230 233 233 232 248 263 271 284 282 290 282 271 260 252 282 214 233 211 225 160 123 142 143 158
237 232 222 195 205 178 165 149 156 179 189 186 199 222 248 271 272 281 277 270 269 279 243 232 248 266 271 277 278 284 273 262 273 263 188 258 201 209 128 125 131 139 158
246 238 238 226 201 174 159 161 161 185 185 199 208 224 244 264 295 225 251 263 270 283 287 273 283 294 295 277 258 280 254 243 277 258 209 242 190 181 180 159 134 154 169
226 247 247 245 207 180 173 166 178 190 190 200 205 230 219 237 239 178 245 263 274 281 291 314 311 262 247 256 235 250 210 225 232 223 202 189 181 181 171 142 152 158 161